TimeMST,TemperatureF,Dew PointF,Humidity,Sea Level PressureIn,VisibilityMPH,Wind Direction,Wind SpeedMPH,Gust SpeedMPH,PrecipitationIn,Events,Conditions,WindDirDegrees,DateUTC
12:53 AM,32.0,19.9,61,29.71,10.0,Calm,Calm,-,N/A,,Overcast,0,2013-01-08 07:53:00
1:53 AM,34.0,21.0,59,29.72,10.0,Calm,Calm,-,N/A,,Overcast,0,2013-01-08 08:53:00
2:53 AM,32.0,21.9,66,29.74,10.0,Calm,Calm,-,N/A,,Overcast,0,2013-01-08 09:53:00
3:53 AM,28.0,19.0,69,29.76,10.0,WSW,12.7,-,N/A,,Clear,250,2013-01-08 10:53:00
4:53 AM,30.9,19.9,64,29.79,10.0,SW,17.3,-,N/A,,Clear,230,2013-01-08 11:53:00
5:53 AM,30.0,19.0,64,29.84,10.0,WSW,13.8,-,N/A,,Clear,240,2013-01-08 12:53:00
6:53 AM,28.9,18.0,64,29.84,10.0,West,11.5,-,N/A,,Clear,260,2013-01-08 13:53:00
7:53 AM,28.9,18.0,64,29.85,10.0,West,10.4,-,N/A,,Clear,270,2013-01-08 14:53:00
8:53 AM,32.0,21.0,64,29.88,10.0,West,10.4,-,N/A,,Mostly Cloudy,280,2013-01-08 15:53:00
9:53 AM,35.1,23.0,61,29.90,10.0,West,8.1,-,N/A,,Scattered Clouds,270,2013-01-08 16:53:00
10:53 AM,37.9,24.1,57,29.90,10.0,West,8.1,-,N/A,,Mostly Cloudy,280,2013-01-08 17:53:00
11:53 AM,39.0,23.0,53,29.90,10.0,WNW,15.0,-,N/A,,Scattered Clouds,300,2013-01-08 18:53:00
12:53 PM,39.9,23.0,51,29.91,10.0,NW,17.3,-,N/A,,Mostly Cloudy,320,2013-01-08 19:53:00
1:53 PM,37.9,24.1,57,29.94,10.0,NNW,12.7,-,N/A,,Overcast,330,2013-01-08 20:53:00
2:53 PM,37.9,24.1,57,29.97,10.0,WNW,8.1,-,N/A,,Mostly Cloudy,300,2013-01-08 21:53:00
3:53 PM,36.0,23.0,59,30.04,10.0,WNW,9.2,-,N/A,,Clear,290,2013-01-08 22:53:00
4:53 PM,32.0,21.0,64,30.05,10.0,WNW,10.4,-,N/A,,Clear,290,2013-01-08 23:53:00
5:53 PM,28.9,19.0,67,30.11,10.0,NNW,12.7,-,N/A,,Clear,340,2013-01-09 00:53:00
6:53 PM,21.9,16.0,78,30.14,10.0,WNW,4.6,-,N/A,,Clear,300,2013-01-09 01:53:00
7:53 PM,17.1,15.1,92,30.17,10.0,South,5.8,-,N/A,,Clear,190,2013-01-09 02:53:00
8:53 PM,19.0,16.0,88,30.17,10.0,SSW,3.5,-,N/A,,Clear,200,2013-01-09 03:53:00
9:53 PM,21.0,18.0,88,30.16,10.0,South,11.5,-,N/A,,Clear,170,2013-01-09 04:53:00
10:53 PM,21.0,16.0,81,30.14,10.0,SSE,10.4,-,N/A,,Clear,160,2013-01-09 05:53:00
11:53 PM,23.0,15.1,72,30.13,10.0,South,12.7,-,N/A,,Clear,170,2013-01-09 06:53:00